[[{"header":{"parameterUnit":"m.s-1","parameterCategory":1,"la1":30.2991,"la2":30.254,"lo1":-89.0895,"lo2":-89.0444,"dy":0.0017,"dx":0.0017,"nx":28,"ny":28,"refTime":"2026-01-07T09:00:00:Z","depth":0,"parameterNumber":2,"parameterNumberName":"U-component_of_WINDS"},"data":[0,0,0,0,0,0,0,0,0,0,0,0,0,0,0,0,0,0,0,0,0,0,0,0,0,0,0,0,0,0,0,0,0,0,0,0,0,0,0,0,0,0,0,0,0,0,0,0,0,0,0,0,0,0,0,0,0,0,-1.4444,-1.4445,0,-1.4572,-1.4573,-1.4575,-1.4629,-1.4629,-1.4628,-1.4628,-1.4763,-1.4767,-1.4771,0,0,0,0,0,0,0,0,0,0,0,0,0,-1.425,-1.4253,-1.4444,-1.4445,-1.4447,-1.4572,-1.4573,-1.4575,-1.4629,-1.4629,-1.4628,-1.4628,-1.4762,-1.4767,-1.4771,0,0,0,0,0,0,0,0,0,0,0,0,0,-1.4352,-1.4254,-1.4443,-1.4489,-1.4494,-1.4571,-1.4574,-1.4576,-1.4629,-1.4629,-1.4628,-1.4628,-1.4761,-1.4766,-1.4772,-1.4815,0,0,-1.4789,-1.4792,0,0,0,0,0,0,0,0,-1.4346,-1.4359,-1.448,-1.4486,-1.4492,-1.4584,-1.4555,-1.4656,-1.4629,-1.4578,-1.4628,-1.4628,-1.4704,-1.4715,-1.474,-1.4821,-1.4827,-1.479,-1.4793,-1.4796,-1.4797,0,0,0,0,0,0,0,-1.4339,-1.4354,-1.4495,-1.4482,-1.4489,-1.4504,-1.4518,-1.4574,-1.4642,-1.4582,-1.4587,-1.4601,-1.4707,-1.4734,-1.4743,-1.4829,-1.479,-1.4795,-1.4798,-1.4801,-1.4954,-1.4954,0,0,0,0,0,0,-1.4324,-1.4347,-1.4491,-1.4498,-1.4416,-1.4508,-1.4524,-1.4555,-1.4641,-1.4654,-1.4601,-1.4603,-1.4724,-1.4736,-1.4748,-1.4805,-1.4796,-1.4801,-1.4804,-1.4953,-1.4954,-1.4954,0,0,0,0,0,0,-1.4319,-1.4336,-1.4485,-1.4424,-1.4444,-1.4512,-1.4546,-1.4558,-1.4584,-1.4655,-1.4668,-1.4615,-1.4724,-1.474,-1.4798,-1.481,-1.4804,-1.4809,-1.4952,-1.4953,-1.4954,-1.4917,0,0,0,0,0,0,-1.4314,-1.4334,-1.435,-1.4424,-1.4447,-1.4531,-1.4547,-1.456,-1.4593,-1.4597,-1.4672,-1.4684,-1.4725,-1.4789,-1.4803,-1.4818,-1.4813,-1.4951,-1.4953,-1.4954,-1.4918,-1.4917,-1.4916,0,0,0,0,0,-1.4306,-1.4335,-1.4351,-1.4368,-1.4468,-1.4532,-1.4545,-1.4591,-1.4594,-1.4612,-1.4657,-1.4682,-1.4806,-1.4794,-1.4811,-1.4827,-1.4951,-1.4952,-1.4954,-1.4918,-1.4917,-1.4916,0,0,0,0,0,0,-1.4262,-1.4346,-1.4364,-1.4417,-1.4467,-1.4541,-1.4564,-1.4588,-1.4639,-1.4641,-1.4696,-1.4713,-1.4766,-1.4803,-1.4788,-1.4874,-1.4881,-1.4886,-1.4848,-1.4848,-1.4847,-1.4837,-1.4818,0,0,0,0,0,-1.4259,-1.4302,-1.4373,-1.4413,-1.4437,-1.4496,-1.4526,-1.4556,-1.4611,-1.4632,-1.4683,-1.4736,-1.4787,-1.4819,-1.487,-1.4924,-1.4941,-1.4943,-1.4942,-1.4941,-1.4945,-1.4977,-1.4979,-1.4959,-1.4959,-1.4959,0,0,-1.4252,-1.4303,-1.4327,-1.4406,-1.4448,-1.4493,-1.4514,-1.456,-1.4595,-1.464,-1.4697,-1.4736,-1.4799,-1.4855,-1.4882,-1.4887,-1.4954,-1.4943,-1.4942,-1.4946,-1.4978,-1.498,-1.4982,-1.496,-1.496,-1.496,0,0,-1.4262,-1.4305,-1.4343,-1.4385,-1.4448,-1.4487,-1.4496,-1.4567,-1.4594,-1.4652,-1.4687,-1.473,-1.4816,-1.486,-1.4893,-1.4921,-1.4946,-1.4936,-1.4932,-1.4962,-1.4963,-1.4965,-1.4975,-1.4978,-1.4939,-1.4939,-1.4939,0,-1.4246,-1.4313,-1.436,-1.4404,-1.4439,-1.4481,-1.4521,-1.456,-1.4637,-1.466,-1.4665,-1.4775,-1.482,-1.4887,-1.4893,-1.4919,-1.4932,-1.4927,-1.4959,-1.4961,-1.4964,-1.4974,-1.4978,-1.4938,-1.4938,-1.4938,-1.4938,0,-1.4291,-1.4337,-1.4361,-1.4432,-1.447,-1.4512,-1.4566,-1.4598,-1.4626,-1.4665,-1.4724,-1.478,-1.4843,-1.4862,-1.489,-1.4933,-1.4934,-1.4948,-1.4956,-1.4963,-1.4974,-1.4978,-1.4935,-1.4936,-1.4936,-1.4937,0,0,-1.4277,-1.4373,-1.4381,-1.4415,-1.4488,-1.4525,-1.457,-1.463,-1.4657,-1.4709,-1.4749,-1.4822,-1.4835,-1.4873,-1.4907,-1.4933,-1.4952,-1.4944,-1.4947,-1.4944,-1.5004,-1.4992,-1.4996,-1.4969,-1.497,-1.497,-1.4998,0,-1.4297,-1.4376,-1.442,-1.4482,-1.4526,-1.4567,-1.4607,-1.4656,-1.4694,-1.4738,-1.4781,-1.4832,-1.4845,-1.4869,-1.4897,-1.4943,-1.4964,-1.4942,-1.5007,-1.5009,-1.499,-1.5002,-1.499,-1.5013,-1.5003,-1.5004,-1.5004,0,-1.4331,-1.4381,-1.4447,-1.4515,-1.4535,-1.4569,-1.4629,-1.467,-1.4728,-1.4754,-1.4796,-1.4829,-1.4879,-1.4883,-1.4954,-1.4937,-1.4967,-1.4994,-1.4996,-1.5004,-1.5007,-1.501,-1.5022,-1.5025,-1.5011,-1.5011,-1.501,0,-1.4314,-1.4398,-1.4449,-1.4476,-1.4557,-1.458,-1.4615,-1.4672,-1.4706,-1.4759,-1.4781,-1.4839,-1.4871,-1.4916,-1.4965,-1.4963,-1.5031,-1.5039,-1.5055,-1.5053,-1.5067,-1.5066,-1.5084,-1.5086,-1.5086,-1.5086,-1.5086,0,-1.4332,-1.4371,-1.4442,-1.4473,-1.4518,-1.4569,-1.4613,-1.4651,-1.4702,-1.4743,-1.4782,-1.482,-1.4881,-1.4927,-1.4966,-1.5019,-1.5033,-1.5056,-1.5066,-1.5052,-1.5049,-1.5072,-1.5072,-1.5087,-1.5087,-1.5086,-1.5086,0,-1.4321,-1.437,-1.4428,-1.4499,-1.4518,-1.4548,-1.461,-1.4643,-1.4683,-1.4733,-1.4748,-1.4812,-1.4867,-1.492,-1.4995,-1.5021,-1.5074,-1.5087,-1.5054,-1.5059,-1.5073,-1.5071,-1.5107,-1.5114,-1.511,-1.511,-1.511,0,-1.4329,-1.436,-1.4434,-1.4463,-1.4497,-1.4544,-1.4578,-1.463,-1.4664,-1.4732,-1.4757,-1.4815,-1.4865,-1.4952,-1.5006,-1.5064,-1.5078,-1.5087,-1.5087,-1.5073,-1.5079,-1.5076,-1.508,-1.5086,-1.5085,-1.5085,-1.5085,0,-1.4339,-1.4362,-1.4409,-1.4464,-1.4504,-1.4551,-1.4599,-1.4621,-1.4682,-1.4719,-1.4775,-1.4813,-1.489,-1.4947,-1.5011,-1.505,-1.5078,-1.5085,-1.5091,-1.5078,-1.5058,-1.5069,-1.5051,-1.5084,-1.5084,-1.5084,-1.5084,-1.5084,-1.4338,-1.4367,-1.4424,-1.4476,-1.4517,-1.4561,-1.4595,-1.4639,-1.4686,-1.4751,-1.4779,-1.4836,-1.4895,-1.4983,-1.5021,-1.5068,-1.5075,-1.5084,-1.5087,-1.5089,-1.5086,-1.505,-1.508,-1.508,-1.508,-1.508,-1.508,0,-1.435,-1.4388,-1.4435,-1.4501,-1.4541,-1.4563,-1.4618,-1.4651,-1.47,-1.4751,-1.4799,-1.4864,-1.4921,-1.4979,-1.5039,-1.5065,-1.508,-1.5079,-1.5078,-1.5086,-1.5076,-1.5064,-1.5066,-1.5066,-1.5066,-1.5066,-1.5066,-1.5066,-1.4361,-1.4412,-1.4441,-1.4513,-1.4552,-1.4607,-1.4637,-1.4678,-1.4719,-1.479,-1.4836,-1.4873,-1.4928,-1.4992,-1.5045,-1.5061,-1.5082,-1.5077,-1.5097,-1.5086,-1.5087,-1.5088,-1.5077,-1.5081,-1.5081,-1.5103,-1.5103,-1.5103]},{"header":{"parameterUnit":"m.s-1","parameterCategory":1,"la1":30.2991,"la2":30.254,"lo1":-89.0895,"lo2":-89.0444,"dy":0.0017,"dx":0.0017,"nx":28,"ny":28,"refTime":"2026-01-07T09:00:00:Z","depth":0,"parameterNumber":3,"parameterNumberName":"V-component_of_WINDS"},"data":[0,0,0,0,0,0,0,0,0,0,0,0,0,0,0,0,0,0,0,0,0,0,0,0,0,0,0,0,0,0,0,0,0,0,0,0,0,0,0,0,0,0,0,0,0,0,0,0,0,0,0,0,0,0,0,0,0,0,4.3409,4.341,0,4.353,4.3532,4.3533,4.3553,4.3552,4.3551,4.355,4.3673,4.3678,4.3682,0,0,0,0,0,0,0,0,0,0,0,0,0,4.3195,4.3199,4.3408,4.341,4.3412,4.353,4.3532,4.3533,4.3553,4.3552,4.355,4.3549,4.3672,4.3677,4.3682,0,0,0,0,0,0,0,0,0,0,0,0,0,4.33,4.32,4.3408,4.3436,4.3439,4.353,4.3532,4.3534,4.3553,4.3551,4.355,4.3548,4.367,4.3677,4.3683,4.3755,0,0,4.3703,4.3705,0,0,0,0,0,0,0,0,4.3294,4.3307,4.343,4.3434,4.3438,4.3525,4.3502,4.3608,4.3553,4.351,4.3549,4.3548,4.3625,4.3635,4.3662,4.376,4.3766,4.3703,4.3707,4.371,4.3712,0,0,0,0,0,0,0,4.3286,4.3302,4.3457,4.3432,4.3437,4.3443,4.3456,4.3522,4.3575,4.3514,4.3515,4.3529,4.3627,4.3655,4.3665,4.3768,4.3703,4.3709,4.3713,4.3715,4.3937,4.3939,0,0,0,0,0,0,4.3274,4.3296,4.3453,4.346,4.336,4.3448,4.3462,4.3498,4.3574,4.3584,4.3531,4.353,4.3645,4.3657,4.3669,4.3762,4.371,4.3716,4.372,4.3935,4.3937,4.394,0,0,0,0,0,0,4.3269,4.3288,4.3448,4.3379,4.34,4.3453,4.3494,4.3502,4.353,4.3587,4.3597,4.355,4.3644,4.366,4.3735,4.3766,4.3719,4.3725,4.3932,4.3936,4.3938,4.3945,0,0,0,0,0,0,4.3263,4.3286,4.3313,4.3379,4.3403,4.351,4.3495,4.3505,4.3541,4.3541,4.3608,4.3617,4.3644,4.3725,4.3741,4.3774,4.373,4.393,4.3934,4.3937,4.3942,4.3948,4.3952,0,0,0,0,0,4.3256,4.3308,4.3314,4.3333,4.3438,4.3512,4.3526,4.3556,4.3543,4.3572,4.361,4.3615,4.376,4.3732,4.375,4.3786,4.3928,4.3933,4.3937,4.394,4.3946,4.3952,0,0,0,0,0,0,4.3243,4.3317,4.3324,4.34,4.345,4.3515,4.3551,4.3562,4.3616,4.3613,4.3649,4.3664,4.3737,4.3769,4.3737,4.3862,4.3843,4.3852,4.3839,4.3846,4.3851,4.3842,4.3735,0,0,0,0,0,4.3249,4.3303,4.3365,4.3426,4.3451,4.3497,4.353,4.355,4.3603,4.3624,4.3666,4.3717,4.3775,4.3812,4.3867,4.3947,4.3963,4.398,4.3986,4.399,4.3997,4.4046,4.4055,4.3954,4.3954,4.3954,0,0,4.3262,4.331,4.3341,4.3425,4.3466,4.3522,4.3514,4.3573,4.3616,4.3632,4.3706,4.374,4.3799,4.3878,4.3914,4.3906,4.4029,4.3995,4.3998,4.4003,4.4051,4.4061,4.4069,4.3958,4.3957,4.3957,0,0,4.3315,4.3355,4.3413,4.3455,4.3517,4.3548,4.3562,4.3627,4.3651,4.3726,4.3741,4.3792,4.3889,4.3933,4.3967,4.4042,4.405,4.4059,4.4087,4.4134,4.4142,4.4149,4.4179,4.4189,4.4066,4.4066,4.4066,0,4.3323,4.3408,4.3441,4.3501,4.3539,4.3558,4.3618,4.3657,4.3734,4.376,4.375,4.3876,4.3917,4.4008,4.4027,4.4053,4.4072,4.4052,4.4138,4.4145,4.4153,4.4182,4.4192,4.4067,4.4067,4.4066,4.4066,0,4.3417,4.3476,4.3515,4.3592,4.3634,4.3693,4.3736,4.3775,4.3792,4.3825,4.3904,4.3954,4.4023,4.4046,4.4061,4.414,4.4134,4.413,4.4112,4.4163,4.4191,4.4202,4.4068,4.4068,4.4067,4.4067,0,0,4.3464,4.356,4.3574,4.3611,4.3684,4.373,4.3792,4.386,4.3895,4.3948,4.4003,4.4087,4.4086,4.4125,4.4147,4.4188,4.4248,4.418,4.4182,4.4193,4.4343,4.4346,4.4358,4.4254,4.4257,4.4258,4.4339,0,4.3528,4.3638,4.3671,4.3765,4.3822,4.3843,4.3898,4.3949,4.3982,4.4036,4.4073,4.4133,4.4125,4.415,4.4192,4.4232,4.4279,4.4226,4.4307,4.431,4.4294,4.4372,4.4376,4.4449,4.4349,4.4351,4.4353,0,4.3616,4.3674,4.3773,4.3843,4.3868,4.3916,4.3984,4.4035,4.4095,4.4116,4.4163,4.4182,4.4249,4.4228,4.4323,4.4287,4.4322,4.4347,4.4351,4.4361,4.4335,4.4387,4.4473,4.4485,4.437,4.4368,4.4367,0,4.3644,4.3746,4.382,4.3851,4.3933,4.3967,4.4003,4.4061,4.4101,4.4161,4.4188,4.4253,4.429,4.4341,4.4379,4.4359,4.4473,4.4453,4.4494,4.4494,4.4518,4.4516,4.4613,4.4537,4.4537,4.4537,4.4536,0,4.3712,4.3773,4.3835,4.388,4.3951,4.3989,4.4058,4.4094,4.4147,4.4202,4.4224,4.4275,4.432,4.4378,4.4408,4.4485,4.45,4.4521,4.4529,4.4521,4.4518,4.4545,4.4542,4.454,4.4539,4.4538,4.4538,0,4.3755,4.3798,4.3881,4.3953,4.3973,4.4022,4.4084,4.4131,4.4166,4.4236,4.4254,4.431,4.4379,4.4422,4.4509,4.453,4.4616,4.462,4.4596,4.46,4.464,4.4637,4.4759,4.4779,4.4687,4.4688,4.4689,0,4.3797,4.3845,4.3924,4.3962,4.3999,4.406,4.4103,4.4143,4.4187,4.4262,4.43,4.4371,4.4431,4.4542,4.459,4.4659,4.4667,4.4705,4.4677,4.4669,4.4671,4.4669,4.4675,4.471,4.471,4.4711,4.4712,0,4.3868,4.3888,4.3948,4.4018,4.4068,4.4124,4.418,4.421,4.4261,4.4309,4.4381,4.4428,4.4519,4.4591,4.4665,4.4703,4.4717,4.472,4.4734,4.4727,4.4713,4.4724,4.4611,4.4717,4.4717,4.4716,4.4716,4.4716,4.3914,4.3959,4.4023,4.409,4.4137,4.419,4.4239,4.4282,4.4343,4.4421,4.4441,4.4518,4.4581,4.4682,4.4722,4.4784,4.4778,4.4797,4.4803,4.4808,4.481,4.4701,4.4797,4.4797,4.4797,4.4797,4.4797,0,4.3989,4.4032,4.4093,4.4172,4.4227,4.4236,4.4299,4.4344,4.4412,4.4469,4.4529,4.4614,4.4685,4.4741,4.4814,4.4853,4.4862,4.4872,4.487,4.488,4.4809,4.4792,4.4864,4.4864,4.4864,4.4864,4.4864,4.4864,4.4034,4.4113,4.4141,4.4245,4.4287,4.4363,4.4399,4.4449,4.4496,4.4591,4.4651,4.4687,4.4745,4.4824,4.489,4.4905,4.4932,4.4941,4.4958,4.4891,4.4884,4.4877,4.4861,4.4946,4.4946,4.5023,4.5024,4.5024]}]]